sat.trackr.live / text

‹ back to catalog

NAVSTAR 49 (USA 154)

NORAD 26605 · 2000-071A

PAYLOAD ACTIVE UNKNOWN

§ Identity

Operator
Country
US
Launch date
2000-11-10
Launch site
AFETR
Launch vehicle
Mass (kg)
RCS (m²)
2.60

External: N2YO · Heavens-Above · Gunter

§ Orbital elements

Epoch: 2026-09-19T15:13:32.723328Z

Period
717.98 min
Inclination
55.6834°
Eccentricity
0.0174558
Mean motion
2.00561456 rev/d
Perigee alt
19,718.8 km
Apogee alt
20,646.0 km
Semi-major
26,560.5 km
B*
0.0000e+0
RAAN
91.2244°
Arg perigee
267.0614°
Mean anomaly
97.0546°
Rev number
18,941

§ Raw data

NAVSTAR 49 (USA 154)1 26605U 00071A   26262.63440652  .00000019  00000+0  00000+0 0  99932 26605  55.6834  91.2244 0174558 267.0614  97.0546  2.00561456189413

JSON: /api/v1/satellites/26605 · /tle

For live sub-satellite position, see the globe view (requires WebGL).

§ Visibility from observer

Set your observer location to see the next 7 days of passes ≥ 10°. The values pass through the URL so the page stays shareable.

No JS? Fill the form by hand. The geolocation button needs JavaScript.